Showing default

SIRION PATHFINDER-2, 43759

Orbit data source: Space-Track

SIRION PATHFINDER-2, 43759 is an American payload satellite in SSO that was launched on Mon, 03 Dec 2018 UTC via an FALCON 9 launch vehicle from the Air Force Western Test Range (AFWTR). Payload-class satellites include a variety of spacecraft equipped with specific instruments for various scientific and technological missions. These include communications satellites like Starlink; space stations such as the ISS; scientific satellites like the Hubble; Earth observation satellites from companies like Planet Labs, Umbra, and HawkEye 360; GPS; miniature CubeSats for education and research; and military/defense satellites.

Loading next visibility...
Identifier
43759, 2018-099B
Orbit
SSO
Country
Flag of USUS
Related business
Manufacturer
Astro Digital
Mission
Operational Commercial Communications
Bus & Motor
CUBESAT 6U, Unknown motor
Mass
10 kg wet, 10 kg dry
Launch date (UTC)
2018-12-03 (8 years ago)
Launch vehicle
FALCON 9
Launch site
Air Force Western Test Range (AFWTR)
Object type
Payload
Rocket body
Debris
Shape & HBR
Box + 2 Pan, 0.7 m
Radar Cross Section
0.143 m², Medium (>0.1 m² and < 1m²)

Expand to show TLE details & history
Last TLE update: 3 days ago

TLE from 3 days ago
0 SIRION PATHFINDER-2
1 43759U 18099B   26170.69233594  .00004059  00000-0  22350-3 0  9995
2 43759  97.4247 219.6903 0007158 293.9955  66.0528 15.14565833413002
Epoch: 2026-06-19T16:36Z
TLE epoch observation values (Epoch: 2026-06-19T16:36:57.825Z)
Latitude
0.00005°
Longitude
62.53169°
Altitude
523.377 km
Speed
7.603 km/s
True Right ascension
14h 38m 45s
True Declination
0° 00' 00"
Sunlit
Object was in full shadow at epoch
Visualization orbit readout
Latitude
Unknown
Longitude
Unknown
Altitude
Unknown
Speed
Unknown
Apparent Right ascension
Unknown
Apparent Declination
Unknown
Sunlit
N/A
Visualization observer readout
Local Sidereal Time
21:41:43
Azimuth
Unknown
Elevation
Unknown
Doppler factor
Unknown
Orbital elements
Apogee altitude
524.208 km
Perigee altitude
514.334 km
Semi-major axis
6,897.408 km
Eccentricity
0.00072
Inclination
97.4247°
RAAN
219.6903°
Arg. of periapsis
293.9955°
True anomaly
66.12779°
Mean anomaly
66.0528°
Eccentric anomaly
66.09029°
Mean motion
3.78891 °/min
Orbital period
95.01 mins
BSTAR
0.0002235
Loading maneuver chart data...
Computing Atmospheric mass density...
Loading historical data...
Loading historical data...
Loading historical data...
Loading historical data...
Loading historical data...
Loading historical data...
Loading historical data...

Documentation

Showing up to 5 results
|